When you browse on this site, cookies collect data to enhance your experience and personalize the content and advertising you see.
Visit our Privacy Policy to learn more. By continuing to use the site, you agree to this use of cookies and data.
  • In Czech Republic
  • List of Countries
  • For 7 days
  • Water Temperature
  • Weather Map
  • Weather Widgets
  • user-avatar
    Login

    Hourly Weather Santa Fe

    Today, 19 September, Thursday

    Time Temperature Precipitation Wind Pressure Humidity
    00:00 +14°C° 0 mm 4 mps 751 mmHg 64%
    01:00 +14°C° 0 mm 4 mps 750 mmHg 66%
    02:00 +14°C° 0 mm 4 mps 750 mmHg 67%
    03:00 +13°C° 0 mm 4 mps 750 mmHg 70%
    04:00 +13°C° 0 mm 3 mps 750 mmHg 72%
    05:00 +12°C° 0 mm 3 mps 751 mmHg 75%
    06:00 +13°C° 0 mm 3 mps 752 mmHg 72%
    07:00 +14°C° 0 mm 4 mps 753 mmHg 69%
    08:00 +17°C° 0 mm 4 mps 754 mmHg 66%
    09:00 +17°C° 0 mm 5 mps 754 mmHg 60%
    10:00 +19°C° 0 mm 6 mps 755 mmHg 55%
    11:00 +21°C° 0 mm 7 mps 756 mmHg 49%
    12:00 +21°C° 0 mm 7 mps 756 mmHg 44%
    13:00 +21°C° 0 mm 7 mps 756 mmHg 39%
    14:00 +21°C° 0 mm 7 mps 756 mmHg 34%
    15:00 +19°C° 0 mm 6 mps 757 mmHg 38%
    16:00 +17°C° 0 mm 6 mps 757 mmHg 43%
    17:00 +15°C° 0 mm 5 mps 757 mmHg 48%
    18:00 +14°C° 0 mm 4 mps 758 mmHg 48%
    19:00 +13°C° 0 mm 4 mps 759 mmHg 49%
    20:00 +11°C° 0 mm 3 mps 760 mmHg 50%
    21:00 +10°C° 0 mm 3 mps 761 mmHg 50%
    22:00 +10°C° 0 mm 3 mps 761 mmHg 51%
    23:00 +9°C° 0 mm 3 mps 762 mmHg 52%

    Tomorrow, 20 September, Friday

    Time Temperature Precipitation Wind Pressure Humidity
    00:00 +9°C° 0 mm 3 mps 762 mmHg 52%
    01:00 +8°C° 0 mm 2 mps 762 mmHg 52%
    02:00 +7°C° 0 mm 2 mps 762 mmHg 52%
    03:00 +7°C° 0 mm 2 mps 762 mmHg 53%
    04:00 +7°C° 0 mm 2 mps 762 mmHg 53%
    05:00 +6°C° 0 mm 2 mps 763 mmHg 53%
    06:00 +8°C° 0 mm 2 mps 763 mmHg 52%
    07:00 +9°C° 0 mm 2 mps 763 mmHg 50%
    08:00 +12°C° 0 mm 2 mps 764 mmHg 48%
    09:00 +14°C° 0 mm 2 mps 764 mmHg 43%
    10:00 +16°C° 0 mm 2 mps 764 mmHg 37%
    11:00 +18°C° 0 mm 2 mps 765 mmHg 32%
    12:00 +19°C° 0 mm 2 mps 764 mmHg 32%
    13:00 +19°C° 0 mm 2 mps 764 mmHg 31%
    14:00 +20°C° 0 mm 2 mps 763 mmHg 30%
    15:00 +20°C° 0 mm 2 mps 763 mmHg 35%
    16:00 +19°C° 0 mm 2 mps 763 mmHg 41%
    17:00 +19°C° 0 mm 1 mps 763 mmHg 46%
    18:00 +16°C° 0 mm 1 mps 763 mmHg 49%
    19:00 +14°C° 0 mm 1 mps 763 mmHg 52%
    20:00 +12°C° 0 mm 1 mps 764 mmHg 56%
    21:00 +12°C° 0 mm 2 mps 764 mmHg 59%
    22:00 +10°C° 0 mm 2 mps 764 mmHg 62%
    23:00 +10°C° 0 mm 2 mps 765 mmHg 65%

    Day after tomorrow, 21 September, Saturday

    Time Temperature Precipitation Wind Pressure Humidity
    00:00 +9°C° 0 mm 2 mps 764 mmHg 67%
    01:00 +9°C° 0 mm 2 mps 764 mmHg 68%
    02:00 +9°C° 0 mm 2 mps 764 mmHg 69%
    03:00 +8°C° 0 mm 2 mps 764 mmHg 70%
    04:00 +8°C° 0 mm 2 mps 764 mmHg 71%
    05:00 +7°C° 0 mm 2 mps 764 mmHg 71%
    06:00 +9°C° 0 mm 2 mps 765 mmHg 68%
    07:00 +12°C° 0 mm 2 mps 765 mmHg 64%
    08:00 +13°C° 0 mm 2 mps 765 mmHg 61%
    09:00 +16°C° 0 mm 2 mps 765 mmHg 54%
    10:00 +18°C° 0 mm 3 mps 765 mmHg 47%
    11:00 +20°C° 0 mm 3 mps 765 mmHg 41%
    12:00 +21°C° 0 mm 3 mps 764 mmHg 38%
    13:00 +22°C° 0 mm 3 mps 764 mmHg 36%
    14:00 +24°C° 0 mm 3 mps 763 mmHg 33%
    15:00 +23°C° 0 mm 2 mps 763 mmHg 37%
    16:00 +23°C° 0 mm 1 mps 763 mmHg 42%
    17:00 +22°C° 0 mm 1 mps 763 mmHg 46%
    18:00 +20°C° 0 mm 1 mps 763 mmHg 48%
    19:00 +18°C° 0 mm 1 mps 763 mmHg 50%
    20:00 +15°C° 0 mm 2 mps 764 mmHg 51%
    21:00 +14°C° 0 mm 2 mps 764 mmHg 54%
    22:00 +14°C° 0 mm 2 mps 764 mmHg 56%
    23:00 +13°C° 0 mm 2 mps 765 mmHg 58%

    22 September, Sunday

    Time Temperature Precipitation Wind Pressure Humidity
    00:00 +13°C° 0 mm 2 mps 765 mmHg 61%
    01:00 +12°C° 0 mm 2 mps 765 mmHg 65%
    02:00 +12°C° 0 mm 2 mps 765 mmHg 68%
    03:00 +10°C° 0 mm 2 mps 765 mmHg 71%
    04:00 +10°C° 0 mm 2 mps 766 mmHg 73%
    05:00 +9°C° 0 mm 2 mps 766 mmHg 75%
    06:00 +12°C° 0 mm 2 mps 766 mmHg 71%
    07:00 +14°C° 0 mm 2 mps 767 mmHg 66%
    08:00 +15°C° 0 mm 2 mps 767 mmHg 62%
    09:00 +18°C° 0 mm 2 mps 767 mmHg 55%
    10:00 +20°C° 0 mm 2 mps 767 mmHg 49%
    11:00 +23°C° 0 mm 2 mps 767 mmHg 42%
    12:00 +24°C° 0 mm 3 mps 767 mmHg 41%
    13:00 +24°C° 0 mm 3 mps 766 mmHg 39%
    14:00 +25°C° 0 mm 3 mps 765 mmHg 38%
    15:00 +24°C° 0 mm 3 mps 765 mmHg 43%
    16:00 +22°C° 0 mm 3 mps 764 mmHg 49%
    17:00 +21°C° 0 mm 3 mps 764 mmHg 55%
    18:00 +20°C° 0 mm 3 mps 764 mmHg 62%
    19:00 +18°C° 0 mm 3 mps 764 mmHg 68%
    20:00 +16°C° 0 mm 3 mps 765 mmHg 75%
    21:00 +14°C° 0 mm 3 mps 765 mmHg 77%
    22:00 +14°C° 0 mm 3 mps 765 mmHg 80%
    23:00 +13°C° 0 mm 3 mps 765 mmHg 83%

    23 September, Monday

    Time Temperature Precipitation Wind Pressure Humidity
    00:00 +13°C° 0 mm 3 mps 765 mmHg 86%
    01:00 +12°C° 0 mm 3 mps 765 mmHg 88%
    02:00 +12°C° 0 mm 3 mps 765 mmHg 90%
    03:00 +11°C° 0 mm 3 mps 764 mmHg 90%
    04:00 +11°C° 0 mm 3 mps 764 mmHg 91%
    05:00 +10°C° 0 mm 3 mps 764 mmHg 91%
    06:00 +11°C° 0 mm 3 mps 764 mmHg 85%
    07:00 +12°C° 0 mm 4 mps 765 mmHg 79%
    08:00 +13°C° 0 mm 4 mps 765 mmHg 73%
    09:00 +15°C° 0 mm 4 mps 765 mmHg 66%
    10:00 +18°C° 0 mm 3 mps 765 mmHg 59%
    11:00 +20°C° 0 mm 3 mps 765 mmHg 53%
    12:00 +21°C° 0 mm 3 mps 764 mmHg 49%
    13:00 +23°C° 0 mm 2 mps 764 mmHg 45%
    14:00 +24°C° 0 mm 2 mps 763 mmHg 41%
    15:00 +24°C° 0 mm 2 mps 763 mmHg 46%
    16:00 +23°C° 0 mm 2 mps 763 mmHg 50%
    17:00 +21°C° 0 mm 2 mps 763 mmHg 54%
    18:00 +19°C° 0 mm 2 mps 763 mmHg 59%
    19:00 +17°C° 0 mm 2 mps 763 mmHg 65%
    20:00 +15°C° 0 mm 2 mps 764 mmHg 70%
    21:00 +15°C° 0 mm 2 mps 764 mmHg 72%
    22:00 +14°C° 0 mm 2 mps 764 mmHg 73%
    23:00 +13°C° 0 mm 2 mps 765 mmHg 74%

    24 September, Tuesday

    Time Temperature Precipitation Wind Pressure Humidity
    00:00 +13°C° 0 mm 2 mps 765 mmHg 75%
    01:00 +12°C° 0 mm 2 mps 765 mmHg 76%
    02:00 +12°C° 0 mm 1 mps 764 mmHg 77%
    03:00 +12°C° 0 mm 1 mps 764 mmHg 79%
    04:00 +11°C° 0 mm 1 mps 764 mmHg 80%
    05:00 +11°C° 0 mm 1 mps 764 mmHg 81%
    06:00 +13°C° 0 mm 1 mps 765 mmHg 75%
    07:00 +14°C° 0 mm 1 mps 765 mmHg 70%
    08:00 +16°C° 0 mm 1 mps 766 mmHg 64%
    09:00 +18°C° 0 mm 2 mps 766 mmHg 59%
    10:00 +21°C° 0 mm 2 mps 766 mmHg 53%
    11:00 +24°C° 0 mm 2 mps 766 mmHg 48%
    12:00 +25°C° 0 mm 2 mps 765 mmHg 45%
    13:00 +26°C° 0 mm 2 mps 764 mmHg 42%
    14:00 +27°C° 0 mm 2 mps 764 mmHg 40%
    15:00 +26°C° 0 mm 2 mps 764 mmHg 42%
    16:00 +26°C° 0 mm 1 mps 763 mmHg 45%
    17:00 +25°C° 0 mm 1 mps 763 mmHg 48%
    18:00 +23°C° 0 mm 1 mps 763 mmHg 51%
    19:00 +21°C° 0 mm 1 mps 764 mmHg 54%
    20:00 +18°C° 0 mm 2 mps 764 mmHg 56%
    21:00 +17°C° 0 mm 2 mps 764 mmHg 62%
    22:00 +16°C° 0 mm 1 mps 764 mmHg 69%
    23:00 +15°C° 0 mm 1 mps 764 mmHg 75%
    Show more